Location: Christchurch
(43.5000°S, 172.6000°E)
Time: 19:55:02
(UTC+13:00)

ISS - Visible Passes

Search period start: 26 September 2023 00:00
Search period end: 06 October 2023 00:00
Orbit: 413 x 422 km, 51.6° (Epoch: 25 September)

Date Brightness Start Highest point End Pass type
(mag) Time Alt. Az. Time Alt. Az. Time Alt. Az.
26 Sep -3.7 05:26:15 66° SW 05:26:21 67° SSW 05:29:48 10° SE visible
27 Sep -1.5 04:40:02 26° ESE 04:40:02 26° ESE 04:41:43 10° ESE visible
27 Sep -2.2 06:12:57 14° WSW 06:15:20 27° SSW 06:18:21 10° SE visible
28 Sep -2.7 05:26:39 33° SW 05:27:03 34° SSW 05:30:15 10° SE visible
29 Sep -1.7 04:40:16 27° SSE 04:40:16 27° SSE 04:42:09 10° SE visible
29 Sep -1.7 06:13:25 10° WSW 06:16:09 21° S 06:18:53 10° SE visible
30 Sep -0.2 03:53:50 11° SE 03:53:50 11° SE 03:53:58 10° SE visible
30 Sep -1.9 05:26:45 21° SW 05:27:44 23° S 05:30:37 10° SE visible
01 Oct -1.6 04:40:15 24° SSE 04:40:15 24° SSE 04:42:22 10° SE visible
01 Oct -1.6 06:14:08 10° SW 06:16:52 21° S 06:19:34 10° SE visible
02 Oct -0.3 03:53:44 12° SE 03:53:44 12° SE 03:54:07 10° SE visible
02 Oct -1.5 05:26:37 15° SW 05:28:21 20° S 05:31:03 10° SE visible
03 Oct -1.5 04:40:04 21° S 04:40:04 21° S 04:42:34 10° SE visible
03 Oct -1.8 06:14:24 10° SW 06:17:22 26° SSE 06:20:19 10° ESE visible
04 Oct -0.4 03:53:29 14° SE 03:53:29 14° SE 03:54:08 10° SE visible
04 Oct -1.5 05:26:23 12° SW 05:28:48 22° S 05:31:36 10° ESE visible
05 Oct -1.5 04:39:48 20° S 04:40:12 21° S 04:42:54 10° SE visible
05 Oct -2.5 06:14:18 10° SW 06:17:36 40° SSE 06:20:52 10° E visible
